Temp
74 77 78 75 76 73 74 74 77 78 79 78 79 78 78 77 77 76 75 74 74 76
74 73 77 77 76 77 77 79 77 78 77 78 78 78 77 77 76 76 75 74 73 72
74 74 76 76 75 75 77 80 79 79 77 78 78 78 76 74 75 74 75 73 72 71
72 75 74 73 76 76 76 79 80 80 79 76 77 76 75 74 75 73 73 74 74 73
71 73 70 71 75 75 76 79 80 67 70 78 73 69 73 73 75 74 74 74 74 74
70 69 67 69 73 75 75 76 68 67 63 61 63 64 65 74 77 76 75 75 74 74
67 68 65 68 72 73 74 69 63 64 65 63 61 61 67 74 75 75 75 74 73 73
68 68 67 67 68 72 66 64 65 62 63 67 63 67 70 71 72 73 73 73 74 73
69 70 66 65 62 58 62 62 66 66 64 63 70 61 60 69 72 72 71 71 72 69
64 67 67 65 61 58 59 64 67 70 70 71 70 58 57 63 72 71 70 70 70 72
64 63 67 63 59 58 57 60 70 70 71 71 70 55 55 60 72 71 71 70 69 69
62 63 63 64 60 60 56 57 69 72 71 70 62 51 55 65 71 70 69 71 71 70
59 60 61 62 58 58 57 56 65 71 71 63 64 48 54 66 74 68 69 69 69 59
56 57 60 57 61 55 56 57 58 65 69 67 62 56 49 56 71 70 69 69 68 70
MSLP
1001.81 1001.38 1000.91 1000.75 1000.86 1000.64 1001.01 1001.33 1001.62 1001.66 1001.48 1001.87 1002.47 1002.91 1002.77 1004.07 1004.32 1005.11 1005.83 1006.44 1006.76 1007.08
1001.19 1000.82 999.94 999.40 999.56 999.75 999.87 1000.05 1000.43 1000.83 1001.71 1000.95 1001.00 1001.48 1001.93 1003.07 1004.05 1004.00 1004.91 1005.55 1006.05 1006.51
1000.33 999.91 999.38 998.46 998.54 998.61 998.70 998.57 997.88 998.63 999.29 1000.09 1000.15 1000.31 1001.00 1002.09 1003.04 1003.36 1003.88 1005.05 1005.52 1005.79
999.95 998.96 998.32 997.97 997.62 997.46 997.78 997.59 996.66 996.34 997.13 998.91 999.24 999.08 999.58 1001.22 1001.60 1002.46 1003.08 1004.00 1004.76 1004.91
999.52 998.77 998.18 997.27 996.67 996.37 996.66 996.63 995.74 997.54 997.31 996.92 998.61 999.95 999.37 999.13 999.71 1001.36 1002.54 1003.10 1003.81 1004.44
999.40 998.72 998.14 997.02 996.25 995.89 995.91 995.65 996.71 998.25 998.70 1000.19 999.41 1000.87 1000.72 999.38 999.27 1000.28 1001.86 1002.14 1003.08 1003.79
998.84 998.36 997.99 996.97 996.03 995.60 995.15 996.09 997.10 998.72 999.69 1000.79 1002.04 1000.63 1002.29 1000.81 999.64 1000.67 1001.77 1001.69 1002.75 1003.47
998.16 997.79 997.53 996.99 996.15 995.07 994.86 995.10 996.54 997.65 999.05 999.68 1000.15 1001.78 1001.29 1000.19 1000.41 1000.70 1001.12 1001.40 1002.39 1003.40
997.89 997.09 997.17 997.14 996.52 996.13 995.23 994.15 994.92 995.75 996.58 999.59 999.13 998.63 999.40 999.07 999.01 1000.15 1000.67 1001.77 1002.57 1002.63
998.02 996.99 996.45 996.99 996.46 994.98 993.42 993.52 994.18 994.89 995.85 997.25 997.52 997.23 998.43 998.15 998.96 1000.37 1001.41 1001.90 1002.28 1002.38
997.65 996.62 996.03 996.58 996.91 996.94 996.43 994.32 993.54 994.13 994.32 995.53 996.73 997.32 998.30 998.77 999.32 1000.22 1000.81 1001.33 1002.02 1002.32
997.40 996.27 995.90 995.85 996.29 996.75 996.53 995.46 994.12 994.22 994.65 995.42 996.92 998.00 997.91 998.13 999.06 999.87 1000.56 1001.48 1001.63 1002.04
996.99 996.31 995.36 995.44 995.79 995.86 996.56 994.73 994.58 994.72 994.84 995.54 996.76 998.13 997.44 997.32 998.78 1000.04 1000.62 1001.46 1001.22 1001.82
996.58 996.26 995.90 995.30 995.10 995.43 995.46 996.89 996.84 995.30 995.02 995.83 996.36 997.97 998.16 997.78 997.61 999.47 1000.41 1000.74 1001.71 1002.39
Wind_Speed
15 11 12 16 14 12 12 13 18 15 17 21 19 18 17 13 13 14 12 13 9 8
13 16 15 16 17 14 15 14 18 18 21 22 22 21 18 13 14 13 12 11 10 7
13 13 17 15 17 18 18 21 21 23 27 22 21 19 17 14 18 14 12 9 12 9
15 16 14 16 19 16 18 20 18 22 25 25 20 20 20 18 17 16 13 12 10 9
16 16 13 14 18 18 17 20 23 6 7 19 14 6 17 17 17 15 13 12 10 10
15 13 15 16 13 17 18 20 5 5 11 7 9 11 20 15 11 14 12 11 10 8
11 11 13 15 13 17 19 8 8 5 12 10 6 10 27 16 8 10 11 10 8 8
10 10 12 14 14 17 10 12 13 11 6 11 16 20 23 10 7 7 13 9 10 9
18 12 10 11 11 14 11 9 14 18 21 20 21 24 17 11 9 8 10 9 7 8
18 19 9 7 8 15 19 16 16 18 23 22 11 22 16 15 10 9 9 9 7 8
19 19 16 4 4 3 11 16 7 7 8 10 6 20 19 17 12 10 9 8 8 7
21 19 18 8 9 3 7 16 5 5 6 10 8 11 21 16 10 10 9 8 7 6
18 18 17 14 9 9 3 13 13 3 6 11 12 7 18 14 10 9 7 6 6 7
18 17 18 9 9 7 7 5 12 9 4 11 13 9 9 13 12 9 6 5 4 4
Wind_Direction
286 250 240 237 235 227 221 224 225 218 206 206 210 204 192 197 190 190 202 199 206 196
273 276 247 236 230 229 218 217 219 206 222 216 207 201 191 198 202 190 189 196 187 192
280 263 274 234 230 231 228 226 213 199 212 215 208 196 188 192 195 181 183 192 193 195
305 281 256 266 238 230 233 239 234 206 206 210 207 195 181 187 183 185 186 189 198 197
305 297 316 278 241 237 226 237 237 349 321 209 209 295 206 190 179 172 185 191 189 187
295 310 307 298 249 243 231 235 203 118 90 58 53 15 303 237 172 171 182 174 180 176
288 305 309 299 264 247 240 200 126 126 143 155 147 188 241 225 183 171 183 174 178 189
275 283 305 313 313 270 182 165 151 165 189 157 167 221 218 194 184 157 163 165 168 185
297 274 286 309 326 328 212 187 178 168 163 230 211 183 190 166 142 134 128 136 139 121
291 294 263 303 345 315 332 180 187 194 179 191 183 155 161 144 140 139 144 143 145 148
281 281 281 220 265 31 299 313 172 176 169 161 151 159 155 149 144 146 140 131 135 134
280 274 288 246 233 237 321 329 211 166 158 147 139 186 152 144 146 134 133 139 129 137
266 287 268 273 225 218 250 311 315 218 168 143 148 204 150 138 142 134 140 137 135 163
260 266 279 311 250 217 212 239 292 295 225 146 145 165 180 145 137 143 146 146 150 179